Regional Weather Roundup
Issued by NWS

Home | Current Version | Previous Version | Graphics & Text | Print | Product List | Glossary On
Versions: 1 2 3 4 5 6 7 8 9 10 11 12 13 14 15 16 17 18 19 20 21 22 23 24 25 26 27 28 29 30 31 32 33 34 35 36 37 38 39 40 41 42 43 44 45 46 47 48 49 50
000
ASUS43 KTOP 301859
RWRKS

WEATHER ROUNDUP FOR KANSAS
NATIONAL WEATHER SERVICE GOODLAND KS
200 PM CDT SAT APR 30 2016

NOTE:  "FAIR" INDICATES FEW OR NO CLOUDS BELOW 12,000 FEET WITH NO
SIGNIFICANT WEATHER AND/OR OBSTRUCTIONS TO VISIBILITY.

KSZ001>006-013>018-027>032-041>047-302000-
NORTHWEST KANSAS

CITY           SKY/WX    TMP DP  RH WIND       PRES   REMARKS
GOODLAND       CLOUDY    39  34  82 NW17      29.83S WCI  30
HAYS           CLOUDY    50  36  57 NW16      29.80S
HILL CITY      CLOUDY    47  38  71 NW10      29.81R
RUSSELL        CLOUDY    51  42  71 W15       29.78R
$$

KSZ061>065-074>080-084>089-302000-
SOUTHWEST KANSAS

CITY           SKY/WX    TMP DP  RH WIND       PRES   REMARKS
DODGE CITY     CLOUDY    49  36  61 W17G24    29.84F
ELKHART          N/A     51  33  50 NW16        N/A
GARDEN CITY    CLOUDY    49  35  58 NW20      29.84S
GREAT BEND     CLOUDY    52  39  62 W16       29.81R
LIBERAL        PTSUNNY   54  39  58 NW18      29.88S
$$

KSZ066>073-081>083-090>101-302000-
SOUTHEAST KANSAS

CITY           SKY/WX    TMP DP  RH WIND       PRES   REMARKS
CHANUTE        MOSUNNY   63  50  62 SW13      29.77S
COFFEYVILLE    MOSUNNY   63  51  65 W10G16    29.78F
HUTCHINSON     PTSUNNY   58  43  57 W15G25    29.79S
MEDICINE LODGE   N/A     60  42  51 W13       29.82F
NEWTON         MOSUNNY   57  43  58 W18G24    29.79S
PARSONS        MOSUNNY   63  53  70 W13       29.79S
WICHITA INTL   MOSUNNY   61  46  57 W16       29.78F
WICHITA JABRA  SUNNY     59  45  59 W18G24    29.78S
WINFIELD       MOSUNNY   61  48  62 W12G21    29.80F
$$

KSZ007>012-019>026-033>040-048>060-102>105-302000-
NORTHEAST KANSAS

CITY           SKY/WX    TMP DP  RH WIND       PRES   REMARKS
CONCORDIA      CLOUDY    53  46  77 W14       29.74R
EMPORIA        PTSUNNY   60  48  64 W10       29.76S
LAWRENCE       MOSUNNY   63  51  65 W17G25    29.73S
MANHATTAN      PTSUNNY   60  47  61 W10       29.73S
OLATHE IND     MOSUNNY   64  52  64 W15G24    29.73S
OLATHE EXE     PTSUNNY   63  51  65 SW12G26   29.73R
SALINA         CLOUDY    58  47  66 W17       29.76R
TOPEKA BILLARD PTSUNNY   61  49  64 W12       29.73F
TOPEKA FORBES  PTSUNNY   62  50  64 W13       29.73S
$$



USA.gov is the U.S. government's official web portal to all federal, state and local government web resources and services.